Starlink 31351

operational
NORAD ID: 58972 Int'l Des: 2024-031 Owner: SPXS Country: US Constellation: starlink
LEOCIRCULAR

关于 Starlink 31351

正在加载描述...

实时位置

正在加载3D地球...

即将过境

高度历史

Altitude vs Time

uPlot chart will show altitude changes over time

两行轨道根数

1 58972U 24031H 25349.36476751 .00002211 00000-0 86764-4 0 9994
2 58972 53.1619 328.3044 0001267 69.0067 291.1070 15.30192709103614
Epoch: Dec 15, 2025 • Age: 32 hours

当前状态

高度 480.9 km
速度 7.63 km/s
星下点 52.96°N, 70.39°E
发射日期 Feb 15, 2024
运行时间 1.8 years
类型 internet

技术详情

分类 Payload
质量 730.00 kg
干质量 700.00 kg
总质量 730.00 kg
长度 0.30 m
直径 4.10 m
跨度 29.00 m
形状 Box + pan
制造商 SPXS
平台类型 Starlink V2M
阶段状态 In Orbit
所有者/国家 SPXS/US

大型星座

Loading constellations...